Location: Angwan Shehu
(11.2514°N, 7.4613°E)
Time: 00:22:07
(UTC+00:00)

Tiros 1 - Pass Details

Date: 23 April 2021
Orbit: 630 x 664 km, 48.4° (Epoch: 06 May)

Event Time Altitude Azimuth Distance (km) Brightness Sun altitude
Rises 05:50:41 0° 240° (WSW) 2,965 9.9 7.8°
Reaches altitude 10° 05:53:16 10° 251° (WSW) 2,048 9.1 8.4°
Maximum altitude 05:57:23 30° 312° (NW) 1,159 8.2 9.4°
Drops below altitude 10° 06:01:30 10° 14° (NNE) 2,028 10.1 10.4°
Sets 06:04:03 0° 25° (NNE) 2,930 11.1 11.0°
